Bookmark This Page!
Reloads every 15 minutes.
Last updated
  Max Temp Min Temp Max Dew Point Min Dew Point Max Wind Gust Max Precipitation Max Altimeter Min Altimeter Max Theta-E Min Theta-E
World Extremes 100° 19° 82° -38° 66 mph 0.93" 1045 mb 950 mb 378 K 274 K
  Thermal/palm Spg, CA United States Cambridge Bay, NU Canada Jask, Iran Camden, AR United States Hondo, TX United States Houston/intnl, TX United States Gobabis Arpt, Namibia Amundsen-scott, Antarctica Jask, Iran Cambridge Bay, NU Canada
U.S. Extremes 100° 23° 77° -38° 66 mph 0.93" 1027 mb 995 mb 364 K 274 K
  Thermal/palm Spg, CA Berthoud Pass, CO C. Christi Nas, TX Camden, AR Hondo, TX Houston/intnl, TX Portland, ME Dutch Harbor, AK C. Christi Nas, TX Berthoud Pass, CO
Lower 48 US Extremes 100° 23° 77° -38° 66 mph 0.93" 1027 mb 1002 mb 364 K 274 K
  Thermal/palm Spg, CA Berthoud Pass, CO C. Christi Nas, TX Camden, AR Hondo, TX Houston/intnl, TX Portland, ME Laredo, TX C. Christi Nas, TX Berthoud Pass, CO

 

Country/State/Providence:
 
Temperature Extremes
 CityTemperature
Maximum: Thermal/palm Spg
100°
Minimum: Crescent City
59°
Dew Point Extremes
 CityDew Point
Maximum: Oceanside
60°
Minimum: El Centro Naf
Altimeter Extremes
 CityAltimeter
Maximum: Truckee Tahoe
1021 mb
Minimum: Thermal/palm Spg
1005 mb
Visibility Extremes
 CityVisibility
Maximum: Chico Municipal
80 miles
Minimum: Edwards N-aux
5 miles
Humidity Extremes
 CityHumidity
Maximum: Vandenberg Afb
77%
Minimum: El Centro Naf
4%
Theta-E Extremes
 CityTheta-E
Maximum: Corona Muni
334 K
Minimum: Big Bear City
298 K
Maximum Wind Gust
 CityWind Gust
Maximum: Corona Muni
26
  
 
Minimum Ceiling
 CityCeiling
Minimum: Carlsbad
1200 ft
  
 
Time
Min Old
City
Temp
Dew Point
Humidity
Wind
Gust
Altimeter
Visibility
Sky
Precip
Theta-E
Flight
Ceiling
05/24 23:45 UTC81VictorvilleNNE at 8 MPH101310 milesClearVFRUnlimited FT
05/24 23:47 UTC79San Jose/reid884321NW at 16 MPH101210 milesClear324VFRUnlimited FT
05/24 23:45 UTC81Truckee Tahoe722719N at 8 MPH16102110 milesMostly Clear306VFRUnlimited FT
05/24 23:47 UTC79La Verne/bracket815439WSW at 15 MPH20101210 milesClear329VFRUnlimited FT
05/24 23:47 UTC79El Monte735553SSW at 12 MPH101210 milesClear327VFRUnlimited FT
05/24 23:50 UTC76Daggett89228Calm101110 milesClear314VFRUnlimited FT
05/24 23:51 UTC75Oxnard655673W at 15 MPH101310 milesClear323VFRUnlimited FT
05/24 23:51 UTC75San Diego695663W at 8 MPH101310 milesPartly Cloudy325VFRUnlimited FT
05/24 23:51 UTC75Santa Monica665773WSW at 10 MPH101210 milesClear325VFRUnlimited FT
05/24 23:51 UTC75Santa Maria734638NW at 12 MPH101310 milesClear318VFRUnlimited FT
05/24 23:51 UTC75Van Nuys835133SE at 9 MPH101110 milesClear328VFRUnlimited FT
05/24 23:51 UTC75Avalon655263WSW at 9 MPH101410 milesClear319VFRUnlimited FT
05/24 23:52 UTC74Point Mugu Nas665568W at 12 MPH10139 milesClear322VFRUnlimited FT
05/24 23:52 UTC74Campo805137NW at 17 MPH221012327Unlimited FT
05/24 23:52 UTC74Blythe96196WNW at 9 MPH100710 milesClear318VFRUnlimited FT
05/24 23:52 UTC74Emigrant Gap674241variable at 7 MPH102010 milesClear312VFRUnlimited FT
05/24 23:49 UTC77Chico Municipal913212WSW at 7 MPH101280 milesPartly Cloudy320VFRUnlimited FT
05/24 23:52 UTC74Thermal/palm Spg100236variable at 5 MPH100510 milesClear321VFRUnlimited FT
05/24 23:52 UTC74Los Angeles725759101210 milesClear328VFRUnlimited FT
05/24 23:53 UTC73Sandberg753523NNW at 10 MPH101810 miles312VFRUnlimited FT
05/24 23:53 UTC73Arcata/eureka605172NNW at 18 MPH101910 milesClear315VFRUnlimited FT
05/24 23:53 UTC73Chino845537WSW at 17 MPH101110 milesClear332VFRUnlimited FT
05/24 23:53 UTC73Carlsbad655673SW at 8 MPH101210 milesCloudy323MVFR1200 FT
05/24 23:53 UTC73Burbank785443S at 13 MPH101110 milesClear328VFRUnlimited FT
05/24 23:53 UTC73Concord914722NW at 13 MPH101210 milesClear329VFRUnlimited FT
05/24 23:53 UTC73Hawthorne695663WSW at 15 MPH101210 milesClear325VFRUnlimited FT
05/24 23:53 UTC73Hanford904219NW at 10 MPH101210 milesClear325VFRUnlimited FT
05/24 23:53 UTC73Fresno894018NW at 10 MPH101210 milesMostly Cloudy323VFR20000 FT
05/24 23:53 UTC73Fullerton795747variable at 3 MPH101110 milesClear332VFRUnlimited FT
05/24 23:53 UTC73Los Angeles675771WSW at 15 MPH101210 milesMostly Clear325VFRUnlimited FT
05/24 23:53 UTC73Long Beach735553WNW at 15 MPH101210 milesClear326VFRUnlimited FT
05/24 23:53 UTC73Imperial96175Calm100610 milesClear317VFRUnlimited FT
05/24 23:53 UTC73Modesto904118N at 12 MPH101110 milesClear324VFRUnlimited FT
05/24 23:53 UTC73Palmdale88198W at 10 MPH101310 milesClear313VFRUnlimited FT
05/24 23:53 UTC73Livermore904319W at 17 MPH101210 milesClear325VFRUnlimited FT
05/24 23:53 UTC73Madera894219W at 8 MPH101210 milesClear324VFRUnlimited FT
05/24 23:53 UTC73Merced904319N at 10 MPH20101210 milesClear325VFRUnlimited FT
05/24 23:53 UTC73San Diego/mntgmy715761WSW at 10 MPH101310 milesMostly Clear327VFRUnlimited FT
05/24 23:53 UTC73Marysville914420NNW at 9 MPH101210 milesClear327VFRUnlimited FT
05/24 23:53 UTC73Oakland765345WNW at 16 MPH101310 milesMostly Clear326VFRUnlimited FT
05/24 23:53 UTC73Ontario855232W at 14 MPH22101110 milesMostly Clear330VFRUnlimited FT
05/24 23:53 UTC73Oroville904319WNW at 8 MPH101210 milesClear325VFRUnlimited FT
05/24 23:53 UTC73Paso Robles923312SW at 6 MPH101110 milesClear320VFRUnlimited FT
05/24 23:53 UTC73Palm Springs99257Calm100710 milesClear321VFRUnlimited FT
05/24 23:53 UTC73Riverside825540W at 20 MPH25101010 milesClear332VFRUnlimited FT
05/24 23:53 UTC73Redding904017W at 6 MPH101210 milesClear323VFRUnlimited FT
05/24 23:53 UTC73Ramona755855WNW at 10 MPH101310 milesClear330VFRUnlimited FT
05/24 23:53 UTC73Sacramento933613101110 milesClear322VFRUnlimited FT
05/24 23:53 UTC73Santa Barbara685359W at 15 MPH10138 milesClear322VFRUnlimited FT
05/24 23:53 UTC73Montague/siskiyo824022Calm101810 milesClear318VFRUnlimited FT
05/24 23:53 UTC73San Jose864524NNW at 17 MPH101210 milesMostly Clear325VFRUnlimited FT
05/24 23:53 UTC73Sacramento/metro924218NNW at 9 MPH101110 milesPartly Cloudy326VFRUnlimited FT
05/25 00:06 UTC60Costa Mesa735655WSW at 8 MPH101210 milesMostly Clear327VFRUnlimited FT
05/24 23:53 UTC73Salinas705049NW at 13 MPH101410 milesClear320VFRUnlimited FT
05/24 23:53 UTC73Santa Rosa863818WSW at 9 MPH101310 milesClear320VFRUnlimited FT
05/24 23:53 UTC73South Lake Tahoe672823NNE at 6 MPH102110 milesClear304VFRUnlimited FT
05/24 23:53 UTC73Vacaville934016NE at 7 MPH101210 milesClear325VFRUnlimited FT
05/24 23:53 UTC73Watsonville715353S at 8 MPH101410 milesClear323VFRUnlimited FT
05/24 23:54 UTC72Hayward785139WNW at 16 MPH101310 milesClear325VFRUnlimited FT
05/24 23:54 UTC72Napa825540SSW at 15 MPH101210 milesClear332VFRUnlimited FT
05/24 23:54 UTC72Bakersfield903615NNW at 12 MPH101110 milesClear321VFRUnlimited FT
05/24 23:54 UTC72Red Bluff943412N at 10 MPH101210 milesClear322VFRUnlimited FT
05/24 23:54 UTC72Monterey695153NNW at 9 MPH101410 milesClear320VFRUnlimited FT
05/24 23:55 UTC71Alturas753322Calm101910 milesClear311VFRUnlimited FT
05/24 23:56 UTC70Corona Muni795950NW at 20 MPH26101110 milesClear334VFRUnlimited FT
05/24 23:56 UTC70Lompoc675259W at 13 MPH101310 milesClear320VFRUnlimited FT
05/24 23:56 UTC70Visalia Muni894522WNW at 12 MPH101210 milesClear327VFRUnlimited FT
05/24 23:56 UTC70Porterville904219WNW at 7 MPH16101210 milesClear325VFRUnlimited FT
05/24 23:55 UTC71Stockton943915NW at 8 MPH101110 milesClear325VFRUnlimited FT
05/24 23:55 UTC71Camarillo725453WSW at 10 MPH101310 milesClear324VFRUnlimited FT
05/24 23:56 UTC70El Centro Naf9684ESE at 5 MPH100710 milesClear316VFRUnlimited FT
05/24 23:56 UTC70Lemoore Nas/reev903917N at 10 MPH21101210 milesClear323VFRUnlimited FT
05/24 23:56 UTC70Mount Shasta753725variable at 5 MPH101810 milesClear313VFRUnlimited FT
05/24 23:56 UTC70China Lake (naf)91197NNE at 7 MPH101210 milesClear315VFRUnlimited FT
05/24 23:56 UTC70Twentynine Palms89187NNE at 8 MPH101310 milesClear313VFRUnlimited FT
05/24 23:56 UTC70San Luis Obispo784026NW at 15 MPH101210 milesClear317VFRUnlimited FT
05/24 23:56 UTC70San Francisco704744WNW at 25 MPH101310 milesMostly Clear317VFRUnlimited FT
05/24 23:56 UTC70Ukiah894623WNW at 12 MPH18101310 milesClear327VFRUnlimited FT
05/24 23:56 UTC70Lancaster/fox88208variable at 3 MPH101310 milesClear313VFRUnlimited FT
05/24 23:56 UTC70Bishop86219W at 8 MPH101410 milesClear312VFRUnlimited FT
05/24 23:56 UTC70Crescent City595072N at 9 MPH101910 milesClear313VFRUnlimited FT
05/24 23:56 UTC70Needles93197N at 15 MPH100910 milesClear, Light Rain 0317VFRUnlimited FT
05/24 23:52 UTC74North Island Nas695663WSW at 8 MPH101310 milesPartly Cloudy325VFRUnlimited FT
05/24 23:58 UTC68Beale Afb/marysv884825NW at 7 MPH101110 milesMostly Clear328VFRUnlimited FT
05/24 23:58 UTC68Edwards N-aux87167ESE at 6 MPH10125 milesClear, Haze 312VFRUnlimited FT
05/24 23:58 UTC68Riverside/march835335NW at 15 MPH22101110 milesClear330VFRUnlimited FT
05/24 23:58 UTC68Palmdale84188N at 3 MPH101310 milesClear311VFRUnlimited FT
05/24 23:58 UTC68Los Alamitos Aaf775954W at 8 MPH101210 milesClear332VFRUnlimited FT
05/24 23:58 UTC68Travis Afb/fairf944720SW at 13 MPH101210 milesClear330VFRUnlimited FT
05/24 23:58 UTC68Vandenberg Afb605377W at 7 MPH101410 milesClear317VFRUnlimited FT
05/24 23:50 UTC76San Bernardino904118WSW at 15 MPH10107 milesClear324VFRUnlimited FT
05/24 23:55 UTC71Miramar Nas/san715863W at 8 MPH101310 milesClear328VFRUnlimited FT
05/24 23:56 UTC70Oceanside/red-b705866W at 9 MPH10139 milesCloudy328MVFR1300 FT
05/24 23:55 UTC71Camp Pendleton695663WSW at 12 MPH101210 milesClear325VFRUnlimited FT
05/25 00:35 UTC31Columbia824325variable at 5 MPH101510 milesClear321VFRUnlimited FT
05/25 00:19 UTC47Oceanside686076WSW at 9 MPH10128 milesMostly Cloudy329MVFR1500 FT
05/25 00:09 UTC57Imperial Beach10139 milesMostly ClearVFRUnlimited FT
05/24 23:58 UTC68Edwards Afb87188Calm101210 milesClear312VFRUnlimited FT
05/24 23:47 UTC79San Carlos Airpo864827WSW at 10 MPH101310 milesClear327VFRUnlimited FT
05/25 00:35 UTC31Susanville Muni793218SSE at 8 MPH101810 milesClear312VFRUnlimited FT
05/25 00:35 UTC31San Diego/brown665568variable at 6 MPH101310 milesPartly Cloudy323VFRUnlimited FT
05/25 00:40 UTC26Hollister Muni824526WSW at 23 MPH101210 milesClear322VFRUnlimited FT
05/25 00:35 UTC31Half Moon Bay595277NW at 14 MPH10155 milesClear, Haze 315VFRUnlimited FT
05/25 00:35 UTC31Petaluma794530W at 8 MPH10149 milesClear320VFRUnlimited FT
05/25 00:25 UTC41Trinity Center843920SSW at 8 MPH101610 milesClear319VFRUnlimited FT
05/25 00:35 UTC31Fortuna615477W at 14 MPH21101910 milesMostly Clear317VFRUnlimited FT
05/25 00:30 UTC36Grass Valley754129WNW at 7 MPH13101610 milesClear315VFRUnlimited FT
05/25 00:35 UTC31Mcclellan Afb903917N at 9 MPH101110 milesClear323VFRUnlimited FT
05/25 00:25 UTC41San Martin903615WNW at 8 MPH16101210 milesClear321VFRUnlimited FT
05/25 00:35 UTC31Davis913212N at 7 MPH101110 milesClear320VFRUnlimited FT
05/25 00:35 UTC31Santa Ynez794834WSW at 13 MPH101310 milesClear323VFRUnlimited FT
05/25 00:35 UTC31Lincoln884321N at 7 MPH101110 milesClear324VFRUnlimited FT
05/25 00:35 UTC31Big Bear City641615N at 3 MPH102110 milesClear298VFRUnlimited FT
05/25 00:35 UTC31Auburn Muni814630variable at 5 MPH101410 milesClear323VFRUnlimited FT
05/25 00:35 UTC31Novato/gnoss Fld844525NNW at 14 MPH20101310 milesClear323VFRUnlimited FT
05/25 00:35 UTC31San Diego/santee725761W at 9 MPH101210 milesClear328VFRUnlimited FT
05/25 00:35 UTC31Tehachapi733222NW at 15 MPH21101710 milesClear310VFRUnlimited FT
05/25 00:37 UTC29Mammoth/june Lak721813NNW at 13 MPH18102110 milesClear303VFRUnlimited FT
05/25 00:35 UTC31Placerville734131WNW at 5 MPH101610 milesClear315VFRUnlimited FT
05/25 00:35 UTC31Weaverville823921WNW at 8 MPH101610 milesClear318VFRUnlimited FT
05/25 00:24 UTC42Bicycle Lake86188WNW at 13 MPH18101210 milesClear312VFRUnlimited FT
05/25 00:20 UTC46Mojave863214WNW at 14 MPH21101310 milesClear317VFRUnlimited FT
05/25 00:00 UTC66La / Whiteman795442SE at 6 MPH101310 milesClear328VFRUnlimited FT